contact:dominique.lefevre@mio.osupytheas.fr, maurice.libes@osupytheas.fr, didier.mallarino@osupytheas.fr
Project:EMSO http://www.emso-fr.org/EMSO-France
Depth: 2436.0 m
Title:EMSO Ligure Ouest : Data MII capteur MICROCAT
DateTime_Computer,Latitude,Longitude,Temperature,Conductivity,Pressure,DateTime_Instrument
DateTime_Computer,Latitude,Longitude,degC,S m-1,dbar,DateTime_Instrument
2023-11-02T00:00:19Z,42.805,6.029,13.3052,4.60183,2470.777,2023-11-02T02:02:45Z
2023-11-02T00:03:22Z,42.805,6.029,13.3048,4.60182,2470.763,2023-11-02T02:05:48Z
2023-11-02T00:06:25Z,42.805,6.029,13.3051,4.60172,2470.763,2023-11-02T02:08:51Z
2023-11-02T00:09:28Z,42.805,6.029,13.3036,4.60170,2470.763,2023-11-02T02:11:54Z
2023-11-02T00:12:31Z,42.805,6.029,13.3041,4.60157,2470.74,2023-11-02T02:14:57Z
2023-11-02T00:15:34Z,42.805,6.029,13.3056,4.60151,2470.73,2023-11-02T02:18:00Z
2023-11-02T00:18:37Z,42.805,6.029,13.3053,4.60154,2470.777,2023-11-02T02:21:03Z
2023-11-02T00:21:40Z,42.805,6.029,13.3046,4.60131,2470.787,2023-11-02T02:24:06Z
2023-11-02T00:24:43Z,42.805,6.029,13.3041,4.60135,2470.763,2023-11-02T02:27:09Z
2023-11-02T00:27:46Z,42.805,6.029,13.3053,4.60154,2470.777,2023-11-02T02:30:12Z
2023-11-02T00:30:49Z,42.805,6.029,13.3063,4.60167,2470.754,2023-11-02T02:33:15Z
2023-11-02T00:33:52Z,42.805,6.029,13.3055,4.60163,2470.74,2023-11-02T02:36:18Z
2023-11-02T00:36:55Z,42.805,6.029,13.3051,4.60170,2470.777,2023-11-02T02:39:21Z
2023-11-02T00:39:58Z,42.805,6.029,13.3076,4.60200,2470.777,2023-11-02T02:42:25Z
2023-11-02T00:43:02Z,42.805,6.029,13.3082,4.60165,2470.754,2023-11-02T02:45:28Z
2023-11-02T00:46:05Z,42.805,6.029,13.3094,4.60188,2470.74,2023-11-02T02:48:31Z
2023-11-02T00:49:08Z,42.805,6.029,13.3082,4.60129,2470.717,2023-11-02T02:51:34Z
2023-11-02T00:52:11Z,42.805,6.029,13.3059,4.60169,2470.777,2023-11-02T02:54:37Z
2023-11-02T00:55:14Z,42.805,6.029,13.3089,4.60225,2470.74,2023-11-02T02:57:40Z
2023-11-02T00:58:17Z,42.805,6.029,13.3069,4.60183,2470.74,2023-11-02T03:00:43Z
2023-11-02T01:01:20Z,42.805,6.029,13.3090,4.60208,2470.777,2023-11-02T03:03:46Z
2023-11-02T01:04:23Z,42.805,6.029,13.3106,4.60195,2470.754,2023-11-02T03:06:49Z
2023-11-02T01:07:26Z,42.805,6.029,13.3089,4.60196,2470.74,2023-11-02T03:09:52Z
2023-11-02T01:10:29Z,42.805,6.029,13.3092,4.60193,2470.754,2023-11-02T03:12:55Z
2023-11-02T01:13:32Z,42.805,6.029,13.3091,4.60184,2470.73,2023-11-02T03:15:58Z
2023-11-02T01:16:35Z,42.805,6.029,13.3084,4.60147,2470.703,2023-11-02T03:19:02Z
2023-11-02T01:19:39Z,42.805,6.029,13.3080,4.60177,2470.693,2023-11-02T03:22:05Z
2023-11-02T01:22:42Z,42.805,6.029,13.3085,4.60166,2470.73,2023-11-02T03:25:08Z
2023-11-02T01:25:45Z,42.805,6.029,13.3097,4.60189,2470.73,2023-11-02T03:28:11Z
2023-11-02T01:28:48Z,42.805,6.029,13.3084,4.60203,2470.73,2023-11-02T03:31:14Z
2023-11-02T01:31:51Z,42.805,6.029,13.3085,4.60155,2470.707,2023-11-02T03:34:17Z
2023-11-02T01:34:54Z,42.805,6.029,13.3071,4.60161,2470.707,2023-11-02T03:37:20Z
2023-11-02T01:37:57Z,42.805,6.029,13.3070,4.60150,2470.684,2023-11-02T03:40:23Z
2023-11-02T01:41:00Z,42.805,6.029,13.3056,4.60191,2470.684,2023-11-02T03:43:26Z
2023-11-02T01:44:03Z,42.805,6.029,13.3077,4.60160,2470.717,2023-11-02T03:46:29Z
2023-11-02T01:47:06Z,42.805,6.029,13.3069,4.60167,2470.707,2023-11-02T03:49:32Z
2023-11-02T01:50:09Z,42.805,6.029,13.3064,4.60170,2470.693,2023-11-02T03:52:35Z
2023-11-02T01:53:12Z,42.805,6.029,13.3071,4.60190,2470.693,2023-11-02T03:55:38Z
2023-11-02T01:56:15Z,42.805,6.029,13.3079,4.60172,2470.684,2023-11-02T03:58:42Z
2023-11-02T01:59:19Z,42.805,6.029,13.3079,4.60175,2470.707,2023-11-02T04:01:45Z
2023-11-02T02:02:22Z,42.805,6.029,13.3079,4.60215,2470.717,2023-11-02T04:04:48Z
2023-11-02T02:05:25Z,42.805,6.029,13.3085,4.60160,2470.73,2023-11-02T04:07:51Z
2023-11-02T02:08:28Z,42.805,6.029,13.3089,4.60173,2470.707,2023-11-02T04:10:54Z
2023-11-02T02:11:31Z,42.805,6.029,13.3041,4.60168,2470.67,2023-11-02T04:13:57Z
2023-11-02T02:14:34Z,42.805,6.029,13.3056,4.60174,2470.754,2023-11-02T04:17:00Z
2023-11-02T02:17:37Z,42.805,6.029,13.3058,4.60166,2470.707,2023-11-02T04:20:03Z
2023-11-02T02:20:40Z,42.805,6.029,13.3051,4.60152,2470.646,2023-11-02T04:23:06Z
2023-11-02T02:23:43Z,42.805,6.029,13.3043,4.60152,2470.693,2023-11-02T04:26:09Z
2023-11-02T02:26:46Z,42.805,6.029,13.3061,4.60171,2470.679,2023-11-02T04:29:12Z
2023-11-02T02:29:49Z,42.805,6.029,13.3063,4.60150,2470.684,2023-11-02T04:32:15Z
2023-11-02T02:32:52Z,42.805,6.029,13.3078,4.60187,2470.67,2023-11-02T04:35:18Z
2023-11-02T02:35:55Z,42.805,6.029,13.3082,4.60204,2470.693,2023-11-02T04:38:21Z
2023-11-02T02:38:59Z,42.805,6.029,13.3062,4.60180,2470.707,2023-11-02T04:41:25Z
2023-11-02T02:42:02Z,42.805,6.029,13.3093,4.60144,2470.67,2023-11-02T04:44:28Z
2023-11-02T02:45:05Z,42.805,6.029,13.3097,4.60189,2470.684,2023-11-02T04:47:31Z
2023-11-02T02:48:08Z,42.805,6.029,13.3105,4.60152,2470.661,2023-11-02T04:50:34Z
2023-11-02T02:51:11Z,42.805,6.029,13.3076,4.60200,2470.684,2023-11-02T04:53:37Z
2023-11-02T02:54:14Z,42.805,6.029,13.3097,4.60158,2470.661,2023-11-02T04:56:40Z
2023-11-02T02:57:17Z,42.805,6.029,13.3067,4.60159,2470.693,2023-11-02T04:59:43Z
2023-11-02T03:00:20Z,42.805,6.029,13.3106,4.60188,2470.693,2023-11-02T05:02:46Z
2023-11-02T03:03:23Z,42.805,6.029,13.3110,4.60190,2470.693,2023-11-02T05:05:49Z
2023-11-02T03:06:26Z,42.805,6.029,13.3125,4.60200,2470.67,2023-11-02T05:08:52Z
2023-11-02T03:09:29Z,42.805,6.029,13.3101,4.60160,2470.707,2023-11-02T05:11:55Z
2023-11-02T03:12:32Z,42.805,6.029,13.3063,4.60175,2470.67,2023-11-02T05:14:58Z
2023-11-02T03:15:35Z,42.805,6.029,13.3053,4.60164,2470.707,2023-11-02T05:18:02Z
2023-11-02T03:18:39Z,42.805,6.029,13.3082,4.60162,2470.67,2023-11-02T05:21:05Z
2023-11-02T03:21:42Z,42.805,6.029,13.3088,4.60172,2470.67,2023-11-02T05:24:08Z
2023-11-02T03:24:45Z,42.805,6.029,13.3098,4.60174,2470.646,2023-11-02T05:27:11Z
2023-11-02T03:27:48Z,42.805,6.029,13.3105,4.60178,2470.661,2023-11-02T05:30:14Z
2023-11-02T03:30:51Z,42.805,6.029,13.3087,4.60170,2470.661,2023-11-02T05:33:17Z
2023-11-02T03:33:54Z,42.805,6.029,13.3080,4.60357,2470.684,2023-11-02T05:36:20Z
2023-11-02T03:36:57Z,42.805,6.029,13.3129,4.60176,2470.661,2023-11-02T05:39:23Z
2023-11-02T03:40:00Z,42.805,6.029,13.3135,4.60207,2470.684,2023-11-02T05:42:26Z
2023-11-02T03:43:03Z,42.805,6.029,13.3093,4.60186,2470.693,2023-11-02T05:45:29Z
2023-11-02T03:46:06Z,42.805,6.029,13.3105,4.60205,2470.67,2023-11-02T05:48:32Z
2023-11-02T03:49:09Z,42.805,6.029,13.3109,4.60187,2470.67,2023-11-02T05:51:35Z
2023-11-02T03:52:12Z,42.805,6.029,13.3119,4.60198,2470.646,2023-11-02T05:54:38Z
2023-11-02T03:55:15Z,42.805,6.029,13.3090,4.60162,2470.684,2023-11-02T05:57:42Z
2023-11-02T03:58:19Z,42.805,6.029,13.3084,4.60175,2470.67,2023-11-02T06:00:45Z
2023-11-02T04:01:22Z,42.805,6.029,13.3085,4.60192,2470.707,2023-11-02T06:03:48Z
2023-11-02T04:04:25Z,42.805,6.029,13.3081,4.60228,2470.661,2023-11-02T06:06:51Z
2023-11-02T04:07:28Z,42.805,6.029,13.3084,4.60168,2470.684,2023-11-02T06:09:54Z
2023-11-02T04:10:31Z,42.805,6.029,13.3082,4.60140,2470.693,2023-11-02T06:12:57Z
2023-11-02T04:13:34Z,42.805,6.029,13.3075,4.60170,2470.684,2023-11-02T06:16:00Z
2023-11-02T04:16:37Z,42.805,6.029,13.3093,4.60160,2470.67,2023-11-02T06:19:03Z
2023-11-02T04:19:40Z,42.805,6.029,13.3067,4.60171,2470.67,2023-11-02T06:22:06Z
2023-11-02T04:22:43Z,42.805,6.029,13.3072,4.60203,2470.684,2023-11-02T06:25:09Z
2023-11-02T04:25:46Z,42.805,6.029,13.3082,4.60126,2470.67,2023-11-02T06:28:12Z
2023-11-02T04:28:49Z,42.805,6.029,13.3067,4.60136,2470.707,2023-11-02T06:31:15Z
2023-11-02T04:31:52Z,42.805,6.029,13.3081,4.60143,2470.67,2023-11-02T06:34:18Z
2023-11-02T04:34:55Z,42.805,6.029,13.3058,4.60148,2470.67,2023-11-02T06:37:22Z
2023-11-02T04:37:59Z,42.805,6.029,13.3053,4.60175,2470.717,2023-11-02T06:40:25Z
2023-11-02T04:41:02Z,42.805,6.029,13.3067,4.60147,2470.693,2023-11-02T06:43:28Z
2023-11-02T04:44:05Z,42.805,6.029,13.3058,4.60132,2470.67,2023-11-02T06:46:31Z
2023-11-02T04:47:08Z,42.805,6.029,13.3064,4.60182,2470.684,2023-11-02T06:49:34Z
2023-11-02T04:50:11Z,42.805,6.029,13.3081,4.60150,2470.684,2023-11-02T06:52:37Z
2023-11-02T04:53:14Z,42.805,6.029,13.3066,4.60161,2470.67,2023-11-02T06:55:40Z
2023-11-02T04:56:17Z,42.805,6.029,13.3070,4.60135,2470.67,2023-11-02T06:58:43Z
2023-11-02T04:59:20Z,42.805,6.029,13.3052,4.60114,2470.693,2023-11-02T07:01:46Z
2023-11-02T05:02:23Z,42.805,6.029,13.3053,4.60125,2470.661,2023-11-02T07:04:49Z
2023-11-02T05:05:26Z,42.805,6.029,13.3056,4.60144,2470.661,2023-11-02T07:07:52Z
2023-11-02T05:08:29Z,42.805,6.029,13.3063,4.60141,2470.661,2023-11-02T07:10:55Z
2023-11-02T05:11:32Z,42.805,6.029,13.3055,4.60124,2470.67,2023-11-02T07:13:58Z
2023-11-02T05:14:35Z,42.805,6.029,13.3070,4.60173,2470.67,2023-11-02T07:17:02Z
2023-11-02T05:17:39Z,42.805,6.029,13.3075,4.60133,2470.707,2023-11-02T07:20:05Z
2023-11-02T05:20:42Z,42.805,6.029,13.3065,4.60120,2470.693,2023-11-02T07:23:08Z
2023-11-02T05:23:45Z,42.805,6.029,13.3051,4.60132,2470.707,2023-11-02T07:26:11Z
2023-11-02T05:26:48Z,42.805,6.029,13.3058,4.60130,2470.693,2023-11-02T07:29:14Z
2023-11-02T05:29:51Z,42.805,6.029,13.3069,4.60140,2470.67,2023-11-02T07:32:17Z
2023-11-02T05:32:54Z,42.805,6.029,13.3070,4.60142,2470.693,2023-11-02T07:35:20Z
2023-11-02T05:35:57Z,42.805,6.029,13.3064,4.60146,2470.693,2023-11-02T07:38:23Z
2023-11-02T05:39:00Z,42.805,6.029,13.3054,4.60164,2470.717,2023-11-02T07:41:26Z
2023-11-02T05:42:03Z,42.805,6.029,13.3061,4.60157,2470.73,2023-11-02T07:44:29Z
2023-11-02T05:45:06Z,42.805,6.029,13.3056,4.60150,2470.693,2023-11-02T07:47:32Z
2023-11-02T05:48:09Z,42.805,6.029,13.3063,4.60150,2470.717,2023-11-02T07:50:35Z
2023-11-02T05:51:12Z,42.805,6.029,13.3062,4.60126,2470.717,2023-11-02T07:53:38Z
2023-11-02T05:54:16Z,42.805,6.029,13.3056,4.60140,2470.73,2023-11-02T07:56:42Z
2023-11-02T05:57:19Z,42.805,6.029,13.3093,4.60120,2470.717,2023-11-02T07:59:45Z
2023-11-02T06:00:22Z,42.805,6.029,13.3063,4.60135,2470.717,2023-11-02T08:02:48Z
2023-11-02T06:03:25Z,42.805,6.029,13.3068,4.60137,2470.717,2023-11-02T08:05:51Z
2023-11-02T06:06:28Z,42.805,6.029,13.3063,4.60145,2470.74,2023-11-02T08:08:54Z
2023-11-02T06:09:31Z,42.805,6.029,13.3073,4.60133,2470.693,2023-11-02T08:11:57Z
2023-11-02T06:12:34Z,42.805,6.029,13.3051,4.60143,2470.717,2023-11-02T08:15:00Z
2023-11-02T06:15:37Z,42.805,6.029,13.3080,4.60163,2470.693,2023-11-02T08:18:03Z
2023-11-02T06:18:40Z,42.805,6.029,13.3070,4.60142,2470.693,2023-11-02T08:21:06Z
2023-11-02T06:21:43Z,42.805,6.029,13.3067,4.60122,2470.717,2023-11-02T08:24:09Z
2023-11-02T06:24:46Z,42.805,6.029,13.3061,4.60152,2470.717,2023-11-02T08:27:12Z
2023-11-02T06:27:49Z,42.805,6.029,13.3101,4.60143,2470.754,2023-11-02T08:30:15Z
2023-11-02T06:30:52Z,42.805,6.029,13.3076,4.60135,2470.74,2023-11-02T08:33:19Z
2023-11-02T06:33:56Z,42.805,6.029,13.3059,4.60137,2470.717,2023-11-02T08:36:22Z
2023-11-02T06:36:59Z,42.805,6.029,13.3057,4.60129,2470.717,2023-11-02T08:39:25Z
2023-11-02T06:40:02Z,42.805,6.029,13.3066,4.60122,2470.74,2023-11-02T08:42:28Z
2023-11-02T06:43:05Z,42.805,6.029,13.3056,4.60129,2470.74,2023-11-02T08:45:31Z
2023-11-02T06:46:08Z,42.805,6.029,13.3061,4.60130,2470.74,2023-11-02T08:48:34Z
2023-11-02T06:49:11Z,42.805,6.029,13.3070,4.60127,2470.777,2023-11-02T08:51:37Z
2023-11-02T06:52:14Z,42.805,6.029,13.3067,4.60136,2470.763,2023-11-02T08:54:40Z
2023-11-02T06:55:17Z,42.805,6.029,13.3063,4.60154,2470.787,2023-11-02T08:57:43Z
2023-11-02T06:58:20Z,42.805,6.029,13.3059,4.60143,2470.777,2023-11-02T09:00:46Z
2023-11-02T07:01:23Z,42.805,6.029,13.3067,4.60140,2470.74,2023-11-02T09:03:49Z
2023-11-02T07:04:26Z,42.805,6.029,13.3073,4.60155,2470.74,2023-11-02T09:06:52Z
2023-11-02T07:07:29Z,42.805,6.029,13.3081,4.60144,2470.754,2023-11-02T09:09:55Z
2023-11-02T07:10:32Z,42.805,6.029,13.3075,4.60175,2470.763,2023-11-02T09:12:59Z
2023-11-02T07:13:36Z,42.805,6.029,13.3059,4.60190,2470.777,2023-11-02T09:16:02Z
2023-11-02T07:16:39Z,42.805,6.029,13.3087,4.60139,2470.8,2023-11-02T09:19:05Z
2023-11-02T07:19:42Z,42.805,6.029,13.3127,4.60132,2470.787,2023-11-02T09:22:08Z
2023-11-02T07:22:45Z,42.805,6.029,13.3122,4.60140,2470.787,2023-11-02T09:25:11Z
2023-11-02T07:25:48Z,42.805,6.029,13.3104,4.60132,2470.824,2023-11-02T09:28:14Z
2023-11-02T07:28:51Z,42.805,6.029,13.3068,4.60144,2470.787,2023-11-02T09:31:17Z
2023-11-02T07:31:54Z,42.805,6.029,13.3098,4.60144,2470.81,2023-11-02T09:34:20Z
2023-11-02T07:34:57Z,42.805,6.029,13.3083,4.60128,2470.824,2023-11-02T09:37:23Z
2023-11-02T07:38:00Z,42.805,6.029,13.3060,4.60153,2470.824,2023-11-02T09:40:26Z
2023-11-02T07:41:03Z,42.805,6.029,13.3070,4.60122,2470.833,2023-11-02T09:43:29Z
2023-11-02T07:44:06Z,42.805,6.029,13.3072,4.60120,2470.824,2023-11-02T09:46:32Z
2023-11-02T07:47:09Z,42.805,6.029,13.3058,4.60138,2470.833,2023-11-02T09:49:36Z
2023-11-02T07:50:13Z,42.805,6.029,13.3086,4.60157,2470.824,2023-11-02T09:52:39Z
2023-11-02T07:53:16Z,42.805,6.029,13.3085,4.60122,2470.81,2023-11-02T09:55:42Z
2023-11-02T07:56:19Z,42.805,6.029,13.3075,4.60150,2470.857,2023-11-02T09:58:45Z
2023-11-02T07:59:22Z,42.805,6.029,13.3069,4.60139,2470.833,2023-11-02T10:01:48Z
2023-11-02T08:02:25Z,42.805,6.029,13.3078,4.60137,2470.824,2023-11-02T10:04:51Z
2023-11-02T08:05:28Z,42.805,6.029,13.3079,4.60137,2470.81,2023-11-02T10:07:54Z
2023-11-02T08:08:31Z,42.805,6.029,13.3083,4.60145,2470.824,2023-11-02T10:10:57Z
2023-11-02T08:11:34Z,42.805,6.029,13.3067,4.60162,2470.847,2023-11-02T10:14:00Z
2023-11-02T08:14:37Z,42.805,6.029,13.3090,4.60131,2470.81,2023-11-02T10:17:03Z
2023-11-02T08:17:40Z,42.805,6.029,13.3074,4.60120,2470.833,2023-11-02T10:20:06Z
2023-11-02T08:20:43Z,42.805,6.029,13.3077,4.60125,2470.847,2023-11-02T10:23:09Z
2023-11-02T08:23:46Z,42.805,6.029,13.3080,4.60157,2470.917,2023-11-02T10:26:12Z
2023-11-02T08:26:49Z,42.805,6.029,13.3060,4.60178,2470.833,2023-11-02T10:29:16Z
2023-11-02T08:29:53Z,42.805,6.029,13.3083,4.60128,2470.833,2023-11-02T10:32:19Z
2023-11-02T08:32:56Z,42.805,6.029,13.3086,4.60137,2470.833,2023-11-02T10:35:22Z
2023-11-02T08:35:59Z,42.805,6.029,13.3061,4.60132,2470.847,2023-11-02T10:38:25Z
2023-11-02T08:39:02Z,42.805,6.029,13.3093,4.60139,2470.857,2023-11-02T10:41:28Z
2023-11-02T08:42:05Z,42.805,6.029,13.3100,4.60149,2470.824,2023-11-02T10:44:31Z
2023-11-02T08:45:08Z,42.805,6.029,13.3084,4.60134,2470.88,2023-11-02T10:47:34Z
2023-11-02T08:48:11Z,42.805,6.029,13.3073,4.60137,2470.847,2023-11-02T10:50:37Z
2023-11-02T08:51:14Z,42.805,6.029,13.3048,4.60138,2470.833,2023-11-02T10:53:40Z
2023-11-02T08:54:17Z,42.805,6.029,13.3058,4.60144,2470.871,2023-11-02T10:56:43Z
2023-11-02T08:57:20Z,42.805,6.029,13.3075,4.60144,2470.857,2023-11-02T10:59:46Z
2023-11-02T09:00:23Z,42.805,6.029,13.3090,4.60166,2470.857,2023-11-02T11:02:50Z
2023-11-02T09:03:27Z,42.805,6.029,13.3081,4.60155,2470.871,2023-11-02T11:05:53Z
2023-11-02T09:06:30Z,42.805,6.029,13.3086,4.60145,2470.88,2023-11-02T11:08:56Z
2023-11-02T09:09:33Z,42.805,6.029,13.3075,4.60144,2470.871,2023-11-02T11:11:59Z
2023-11-02T09:12:36Z,42.805,6.029,13.3070,4.60117,2470.894,2023-11-02T11:15:02Z
2023-11-02T09:15:39Z,42.805,6.029,13.3082,4.60131,2470.871,2023-11-02T11:18:05Z
2023-11-02T09:18:42Z,42.805,6.029,13.3121,4.60161,2470.857,2023-11-02T11:21:08Z
2023-11-02T09:21:45Z,42.805,6.029,13.3079,4.60185,2470.88,2023-11-02T11:24:11Z
2023-11-02T09:24:48Z,42.805,6.029,13.3058,4.60135,2470.88,2023-11-02T11:27:14Z
2023-11-02T09:27:51Z,42.805,6.029,13.3071,4.60123,2470.871,2023-11-02T11:30:17Z
2023-11-02T09:30:56Z,42.805,6.029,13.3075,4.60133,2470.81,2023-11-02T11:33:22Z
2023-11-02T09:33:59Z,42.805,6.029,13.3082,4.60129,2470.857,2023-11-02T11:36:25Z
2023-11-02T09:37:02Z,42.805,6.029,13.3057,4.60139,2470.88,2023-11-02T11:39:28Z
2023-11-02T09:40:05Z,42.805,6.029,13.3081,4.60165,2470.847,2023-11-02T11:42:31Z
2023-11-02T09:43:08Z,42.805,6.029,13.3117,4.60158,2470.871,2023-11-02T11:45:34Z
2023-11-02T09:46:11Z,42.805,6.029,13.3116,4.60142,2470.857,2023-11-02T11:48:37Z
2023-11-02T09:49:14Z,42.805,6.029,13.3086,4.60135,2470.871,2023-11-02T11:51:40Z
2023-11-02T09:52:17Z,42.805,6.029,13.3058,4.60138,2470.857,2023-11-02T11:54:43Z
2023-11-02T09:55:20Z,42.805,6.029,13.3085,4.60134,2470.88,2023-11-02T11:57:46Z
2023-11-02T09:58:23Z,42.805,6.029,13.3069,4.60162,2470.884,2023-11-02T12:00:49Z
2023-11-02T10:01:26Z,42.805,6.029,13.3073,4.60132,2470.904,2023-11-02T12:03:53Z
2023-11-02T10:04:30Z,42.805,6.029,13.3076,4.60137,2470.88,2023-11-02T12:06:56Z
2023-11-02T10:07:33Z,42.805,6.029,13.3066,4.60149,2470.871,2023-11-02T12:09:59Z
2023-11-02T10:10:36Z,42.805,6.029,13.3076,4.60156,2470.871,2023-11-02T12:13:02Z
2023-11-02T10:13:39Z,42.805,6.029,13.3058,4.60193,2470.894,2023-11-02T12:16:05Z
2023-11-02T10:16:42Z,42.805,6.029,13.3082,4.60171,2470.833,2023-11-02T12:19:08Z
2023-11-02T10:19:45Z,42.805,6.029,13.3058,4.60157,2470.88,2023-11-02T12:22:11Z
2023-11-02T10:22:48Z,42.805,6.029,13.3080,4.60188,2470.871,2023-11-02T12:25:14Z
2023-11-02T10:25:51Z,42.805,6.029,13.3062,4.60178,2470.88,2023-11-02T12:28:17Z
2023-11-02T10:28:54Z,42.805,6.029,13.3091,4.60144,2470.917,2023-11-02T12:31:20Z
2023-11-02T10:31:57Z,42.805,6.029,13.3085,4.60150,2470.88,2023-11-02T12:34:23Z
2023-11-02T10:35:00Z,42.805,6.029,13.3061,4.60152,2470.88,2023-11-02T12:37:26Z
2023-11-02T10:38:03Z,42.805,6.029,13.3064,4.60147,2470.917,2023-11-02T12:40:30Z
2023-11-02T10:41:07Z,42.805,6.029,13.3065,4.60202,2470.88,2023-11-02T12:43:33Z
2023-11-02T10:44:10Z,42.805,6.029,13.3065,4.60235,2470.871,2023-11-02T12:46:36Z
2023-11-02T10:47:13Z,42.805,6.029,13.3084,4.60137,2470.894,2023-11-02T12:49:39Z
2023-11-02T10:50:16Z,42.805,6.029,13.3105,4.60132,2470.904,2023-11-02T12:52:42Z
2023-11-02T10:53:19Z,42.805,6.029,13.3104,4.60134,2470.88,2023-11-02T12:55:45Z
2023-11-02T10:56:22Z,42.805,6.029,13.3066,4.60168,2470.88,2023-11-02T12:58:48Z
2023-11-02T10:59:25Z,42.805,6.029,13.3073,4.60194,2470.871,2023-11-02T13:01:51Z
2023-11-02T11:02:28Z,42.805,6.029,13.3072,4.60160,2470.871,2023-11-02T13:04:54Z
2023-11-02T11:05:31Z,42.805,6.029,13.3068,4.60183,2470.917,2023-11-02T13:07:57Z
2023-11-02T11:08:34Z,42.805,6.029,13.3067,4.60158,2470.857,2023-11-02T13:11:00Z
2023-11-02T11:11:37Z,42.805,6.029,13.3097,4.60172,2470.847,2023-11-02T13:14:03Z
2023-11-02T11:14:40Z,42.805,6.029,13.3076,4.60172,2470.847,2023-11-02T13:17:07Z
2023-11-02T11:17:43Z,42.805,6.029,13.3071,4.60157,2470.857,2023-11-02T13:20:10Z
2023-11-02T11:20:47Z,42.805,6.029,13.3069,4.60176,2470.833,2023-11-02T13:23:13Z
2023-11-02T11:23:50Z,42.805,6.029,13.3085,4.60227,2470.871,2023-11-02T13:26:16Z
2023-11-02T11:26:53Z,42.805,6.029,13.3070,4.60238,2470.847,2023-11-02T13:29:19Z
2023-11-02T11:29:56Z,42.805,6.029,13.3051,4.60188,2470.857,2023-11-02T13:32:22Z
2023-11-02T11:32:59Z,42.805,6.029,13.3073,4.60199,2470.857,2023-11-02T13:35:25Z
2023-11-02T11:36:02Z,42.805,6.029,13.3055,4.60186,2470.847,2023-11-02T13:38:28Z
2023-11-02T11:39:05Z,42.805,6.029,13.3067,4.60206,2470.88,2023-11-02T13:41:31Z
2023-11-02T11:42:08Z,42.805,6.029,13.3063,4.60157,2470.857,2023-11-02T13:44:34Z
2023-11-02T11:45:11Z,42.805,6.029,13.3050,4.60192,2470.88,2023-11-02T13:47:37Z
2023-11-02T11:48:14Z,42.805,6.029,13.3051,4.60173,2470.917,2023-11-02T13:50:41Z
2023-11-02T11:51:18Z,42.805,6.029,13.3068,4.60150,2470.857,2023-11-02T13:53:44Z
2023-11-02T11:54:21Z,42.805,6.029,13.3060,4.60148,2470.871,2023-11-02T13:56:47Z
2023-11-02T11:57:24Z,42.805,6.029,13.3060,4.60160,2470.857,2023-11-02T13:59:50Z
2023-11-02T12:00:27Z,42.805,6.029,13.3060,4.60150,2470.871,2023-11-02T14:02:53Z
2023-11-02T12:03:30Z,42.805,6.029,13.3066,4.60169,2470.88,2023-11-02T14:05:56Z
2023-11-02T12:06:33Z,42.805,6.029,13.3066,4.60173,2470.857,2023-11-02T14:08:59Z
2023-11-02T12:09:36Z,42.805,6.029,13.3068,4.60154,2470.904,2023-11-02T14:12:02Z
2023-11-02T12:12:39Z,42.805,6.029,13.3051,4.60160,2470.847,2023-11-02T14:15:05Z
2023-11-02T12:15:42Z,42.805,6.029,13.3046,4.60156,2470.871,2023-11-02T14:18:08Z
2023-11-02T12:18:45Z,42.805,6.029,13.3058,4.60155,2470.833,2023-11-02T14:21:11Z
2023-11-02T12:21:48Z,42.805,6.029,13.3062,4.60160,2470.894,2023-11-02T14:24:14Z
2023-11-02T12:24:51Z,42.805,6.029,13.3045,4.60142,2470.833,2023-11-02T14:27:18Z
2023-11-02T12:27:55Z,42.805,6.029,13.3047,4.60152,2470.871,2023-11-02T14:30:21Z
2023-11-02T12:30:58Z,42.805,6.029,13.3057,4.60152,2470.857,2023-11-02T14:33:24Z
2023-11-02T12:34:01Z,42.805,6.029,13.3046,4.60160,2470.833,2023-11-02T14:36:27Z
2023-11-02T12:37:04Z,42.805,6.029,13.3063,4.60150,2470.81,2023-11-02T14:39:30Z
2023-11-02T12:40:07Z,42.805,6.029,13.3043,4.60152,2470.847,2023-11-02T14:42:33Z
2023-11-02T12:43:10Z,42.805,6.029,13.3043,4.60177,2470.847,2023-11-02T14:45:36Z
2023-11-02T12:46:13Z,42.805,6.029,13.3055,4.60178,2470.833,2023-11-02T14:48:39Z
2023-11-02T12:49:16Z,42.805,6.029,13.3064,4.60170,2470.833,2023-11-02T14:51:42Z
2023-11-02T12:52:19Z,42.805,6.029,13.3069,4.60197,2470.81,2023-11-02T14:54:45Z
2023-11-02T12:55:22Z,42.805,6.029,13.3057,4.60187,2470.847,2023-11-02T14:57:48Z
2023-11-02T12:58:25Z,42.805,6.029,13.3058,4.60160,2470.81,2023-11-02T15:00:51Z
2023-11-02T13:01:28Z,42.805,6.029,13.3063,4.60161,2470.833,2023-11-02T15:03:55Z
2023-11-02T13:04:32Z,42.805,6.029,13.3067,4.60167,2470.8,2023-11-02T15:06:58Z
2023-11-02T13:07:35Z,42.805,6.029,13.3054,4.60185,2470.81,2023-11-02T15:10:01Z
2023-11-02T13:10:38Z,42.805,6.029,13.3061,4.60158,2470.8,2023-11-02T15:13:04Z
2023-11-02T13:13:41Z,42.805,6.029,13.3065,4.60178,2470.824,2023-11-02T15:16:07Z
2023-11-02T13:16:44Z,42.805,6.029,13.3054,4.60180,2470.824,2023-11-02T15:19:10Z
2023-11-02T13:19:47Z,42.805,6.029,13.3056,4.60196,2470.824,2023-11-02T15:22:13Z
2023-11-02T13:22:50Z,42.805,6.029,13.3056,4.60191,2470.787,2023-11-02T15:25:16Z
2023-11-02T13:25:53Z,42.805,6.029,13.3060,4.60142,2470.8,2023-11-02T15:28:19Z
2023-11-02T13:28:56Z,42.805,6.029,13.3049,4.60158,2470.763,2023-11-02T15:31:22Z
2023-11-02T13:31:58Z,42.805,6.029,13.3040,4.60175,2470.81,2023-11-02T15:34:24Z
2023-11-02T13:35:01Z,42.805,6.029,13.3041,4.60170,2470.824,2023-11-02T15:37:27Z
2023-11-02T13:38:04Z,42.805,6.029,13.3041,4.60158,2470.833,2023-11-02T15:40:30Z
2023-11-02T13:41:07Z,42.805,6.029,13.3044,4.60170,2470.824,2023-11-02T15:43:34Z
2023-11-02T13:44:11Z,42.805,6.029,13.3043,4.60127,2470.81,2023-11-02T15:46:37Z
2023-11-02T13:47:14Z,42.805,6.029,13.3046,4.60144,2470.824,2023-11-02T15:49:40Z
2023-11-02T13:50:17Z,42.805,6.029,13.3055,4.60136,2470.8,2023-11-02T15:52:43Z
2023-11-02T13:53:20Z,42.805,6.029,13.3049,4.60139,2470.787,2023-11-02T15:55:46Z
2023-11-02T13:56:23Z,42.805,6.029,13.3046,4.60168,2470.787,2023-11-02T15:58:49Z
2023-11-02T13:59:26Z,42.805,6.029,13.3056,4.60198,2470.81,2023-11-02T16:01:52Z
2023-11-02T14:02:29Z,42.805,6.029,13.3063,4.60174,2470.81,2023-11-02T16:04:55Z
2023-11-02T14:05:32Z,42.805,6.029,13.3046,4.60187,2470.763,2023-11-02T16:07:58Z
2023-11-02T14:08:35Z,42.805,6.029,13.3042,4.60142,2470.8,2023-11-02T16:11:01Z
2023-11-02T14:11:38Z,42.805,6.029,13.3045,4.60142,2470.8,2023-11-02T16:14:04Z
2023-11-02T14:14:41Z,42.805,6.029,13.3040,4.60161,2470.81,2023-11-02T16:17:07Z
2023-11-02T14:17:44Z,42.805,6.029,13.3053,4.60173,2470.787,2023-11-02T16:20:11Z
2023-11-02T14:20:48Z,42.805,6.029,13.3058,4.60166,2470.8,2023-11-02T16:23:14Z
2023-11-02T14:23:51Z,42.805,6.029,13.3055,4.60138,2470.824,2023-11-02T16:26:17Z
2023-11-02T14:26:54Z,42.805,6.029,13.3047,4.60166,2470.8,2023-11-02T16:29:20Z
2023-11-02T14:29:57Z,42.805,6.029,13.3059,4.60122,2470.8,2023-11-02T16:32:23Z
2023-11-02T14:33:00Z,42.805,6.029,13.3048,4.60155,2470.777,2023-11-02T16:35:26Z
2023-11-02T14:36:03Z,42.805,6.029,13.3050,4.60155,2470.773,2023-11-02T16:38:29Z
2023-11-02T14:39:06Z,42.805,6.029,13.3056,4.60147,2470.763,2023-11-02T16:41:32Z
2023-11-02T14:42:09Z,42.805,6.029,13.3069,4.60160,2470.787,2023-11-02T16:44:35Z
2023-11-02T14:45:12Z,42.805,6.029,13.3048,4.60184,2470.787,2023-11-02T16:47:38Z
2023-11-02T14:48:15Z,42.805,6.029,13.3048,4.60157,2470.763,2023-11-02T16:50:41Z
2023-11-02T14:51:18Z,42.805,6.029,13.3056,4.60152,2470.8,2023-11-02T16:53:44Z
2023-11-02T14:54:21Z,42.805,6.029,13.3056,4.60135,2470.787,2023-11-02T16:56:48Z
2023-11-02T14:57:25Z,42.805,6.029,13.3040,4.60193,2470.777,2023-11-02T16:59:51Z
2023-11-02T15:00:28Z,42.805,6.029,13.3048,4.60147,2470.754,2023-11-02T17:02:54Z